Other Surface Observations
Issued by NWS Charleston, SC

Home | Current Version | Previous Version | Text Only | Print | Product List | Glossary On
Versions: 1 2 3 4 5 6 7 8 9 10 11 12 13 14 15 16 17 18 19 20 21 22 23 24 25 26 27 28 29 30 31 32 33 34 35 36 37 38 39 40 41 42 43 44 45 46 47 48 49 50
360
SXUS52 KCHS 300227
OSOCHS

MARINE OBSERVATIONS
NATIONAL WEATHER SERVICE CHARLESTON SC
1000 PM EDT MON MAY 29 2017

...DOWNTOWN CHARLESTON AND HARBOR...

CITY           SKY/WX    TMP DP  RH WIND       PRES   REMARKS
WATERFRONT PRK   N/A     80  72  76 SW7       29.98R

...LAKE MOULTRIE...

CITY           SKY/WX    TMP DP  RH WIND       PRES   REMARKS
PINOPOLIS        N/A     81  73  78 VRB2      29.92R

...LAKE AND SUPPLEMENTAL COASTAL OBSERVATIONS...

STATION/POSITION TIME  TEMP    WIND        PRES    WAVE   SWELL
                       AIR SEA DIR/SP/G            HT/PER HT/PER/DIR
                 (UTC) (F)     (DEG/KT/KT) (MB)    (FT/S) (FT/S/D)
FORT PULASKI     0200   80     190/  6/  9 1016.9
SAPELO ISLAND    0200   80     180/  7     1017.0
WINYAH BAY       0145   78     210/  8     1016.0S
LAKE MURRAY      0220   74     240/  1/  5 1015.9R
ACE BASIN NERRS  0130   79        CALM     1016.0S


...C-MAN AND BUOY OBSERVATIONS...

STATION/POSITION TIME  TEMP    WIND        PRES    WAVE   SWELL
                       AIR SEA DIR/SP/G            HT/PER HT/PER/DIR
                 (UTC) (F)     (DEG/KT/KT) (MB)    (FT/S) (FT/S/D)
BUOY 41004       0210   78 77  190/  8/ 10 1016.4
BUOY 41008       0150   80 79  180/ 14/ 16 1016.4R   2/ 3
FOLLY BEACH CMAN 0200   80     200/ 10/ 11 1017.0R
CAPERS NS BUOY   0208   83 79  220/ 12/ 17 1016.1R
FRIPP NS BUOY    0208   80 79  190/ 12/ 16 1016.0R
5E ST. MARYS GA  0200      80                N/A     2/ 3


STATION/POSITION TIME  TEMP    WIND        PRES    WAVE   SWELL
                       AIR SEA DIR/SP/G            HT/PER HT/PER/DIR
                 (UTC) (F)     (DEG/KT/KT) (MB)    (FT/S) (FT/S/D)
FRYING PAN BUOY  0210   77 76  210/ 10/ 12 1016.5
BUOY 41025       0150   78 77  200/  4/  6 1017.1R   2/ 6   2/160/ 6
CAPE LOOKOUT NC  0200   76     210/  5/  7 1016.3R
BUOY 41002       0150   78 78  240/  6/  8 1018.3R   3/ 6   3/200/ 6
BUOY 41010       0210   82 82  170/  8/ 10 1018.5
ST AUGUSTINE FL  0200   78 79  170/ 12/ 14 1018.4R

$$




USA.gov is the U.S. government's official web portal to all federal, state and local government web resources and services.